CHH7520 EIDW-EIDW

Flight info

Callsign CHH7520
Flight time 2h 20m
Altitude 24000
Route OLONO4E OLONO DCT OLAPO OLAPO3R
Aircraft A333/H-SDE3GHIJ2J3J5M1RVWXY/LB2D1

Departure

Time 2026-05-07 15:15
Airport Dublin Airport (EIDW)

Arrival

Time 2026-05-07 17:36
Airport Dublin Airport (EIDW)
Time Latitude Longitude Altitude Speed Heading
2026-05-07 14:54 53.43283 -6.24961 219 ft 0 kts 46°
2026-05-07 15:04 53.43277 -6.24970 215 ft 2 kts 46°
2026-05-07 15:04 53.43266 -6.24989 218 ft 2 kts 46°
2026-05-07 15:04 53.43255 -6.25009 215 ft 2 kts 46°
2026-05-07 15:05 53.43244 -6.25029 226 ft 2 kts 46°
2026-05-07 15:05 53.43233 -6.25048 223 ft 2 kts 47°
2026-05-07 15:05 53.43229 -6.25058 222 ft 0 kts 21°
2026-05-07 15:05 53.43226 -6.25062 223 ft 0 kts 355°
2026-05-07 15:06 53.43223 -6.25064 224 ft 0 kts 329°
2026-05-07 15:06 53.43220 -6.25064 224 ft 0 kts 303°
2026-05-07 15:06 53.43217 -6.25061 224 ft 0 kts 278°
2026-05-07 15:06 53.43218 -6.25071 228 ft 2 kts 277°
2026-05-07 15:07 53.43222 -6.25119 222 ft 7 kts 278°
2026-05-07 15:07 53.43229 -6.25269 221 ft 14 kts 266°
2026-05-07 15:07 53.43196 -6.25432 218 ft 15 kts 247°
2026-05-07 15:07 53.43153 -6.25606 221 ft 17 kts 247°
2026-05-07 15:08 53.43115 -6.25730 219 ft 8 kts 222°
2026-05-07 15:08 53.43071 -6.25739 225 ft 8 kts 173°
2026-05-07 15:08 53.42985 -6.25681 225 ft 18 kts 157°
2026-05-07 15:08 53.42847 -6.25580 224 ft 26 kts 157°
2026-05-07 15:09 53.42705 -6.25479 219 ft 19 kts 160°
2026-05-07 15:09 53.42614 -6.25560 224 ft 17 kts 225°
2026-05-07 15:09 53.42499 -6.25757 225 ft 27 kts 225°
2026-05-07 15:09 53.42345 -6.26019 223 ft 34 kts 226°
2026-05-07 15:10 53.42270 -6.26324 215 ft 29 kts 272°
2026-05-07 15:10 53.42287 -6.26676 215 ft 31 kts 275°
2026-05-07 15:10 53.42307 -6.27044 222 ft 33 kts 275°
2026-05-07 15:10 53.42328 -6.27435 217 ft 34 kts 275°
2026-05-07 15:11 53.42350 -6.27819 222 ft 28 kts 275°
2026-05-07 15:11 53.42360 -6.27997 216 ft 15 kts 275°
2026-05-07 15:11 53.42351 -6.28103 219 ft 9 kts 237°
2026-05-07 15:11 53.42316 -6.28123 224 ft 3 kts 171°
2026-05-07 15:12 53.42313 -6.28121 223 ft 0 kts 166°
2026-05-07 15:12 53.42308 -6.28118 223 ft 4 kts 160°
2026-05-07 15:12 53.42263 -6.28035 220 ft 11 kts 120°
2026-05-07 15:12 53.42226 -6.27931 225 ft 9 kts 122°
2026-05-07 15:13 53.42218 -6.27909 223 ft 2 kts 122°
2026-05-07 15:13 53.42206 -6.27878 222 ft 4 kts 122°
2026-05-07 15:13 53.42185 -6.27825 218 ft 7 kts 123°
2026-05-07 15:13 53.42173 -6.27743 223 ft 0 kts 95°
2026-05-07 15:14 53.42172 -6.27709 221 ft 15 kts 95°
2026-05-07 15:15 53.42138 -6.27114 220 ft 88 kts 96°
2026-05-07 15:15 53.42062 -6.25707 224 ft 153 kts 102°
2026-05-07 15:15 53.41952 -6.23865 933 ft 156 kts 101°
2026-05-07 15:15 53.41854 -6.22061 1841 ft 156 kts 100°
2026-05-07 15:16 53.41746 -6.20150 2352 ft 178 kts 101°
2026-05-07 15:16 53.41620 -6.17946 2811 ft 198 kts 101°
2026-05-07 15:16 53.41490 -6.15587 3480 ft 209 kts 100°
2026-05-07 15:16 53.41347 -6.13026 3879 ft 234 kts 101°
2026-05-07 15:17 53.41189 -6.10229 4308 ft 251 kts 98°
2026-05-07 15:17 53.41027 -6.07266 4943 ft 258 kts 98°
2026-05-07 15:17 53.40766 -6.04293 5539 ft 258 kts 110°
2026-05-07 15:17 53.39963 -6.01651 6122 ft 254 kts 133°
2026-05-07 15:18 53.38583 -5.99872 6673 ft 249 kts 158°
2026-05-07 15:18 53.36912 -5.99279 7278 ft 246 kts 181°
2026-05-07 15:18 53.35204 -5.99595 7881 ft 247 kts 191°
2026-05-07 15:18 53.33546 -6.00130 8547 ft 246 kts 193°
2026-05-07 15:19 53.31850 -6.00699 9066 ft 251 kts 192°
2026-05-07 15:19 53.30104 -6.01271 9538 ft 260 kts 192°
2026-05-07 15:19 53.28308 -6.01957 10052 ft 270 kts 196°
2026-05-07 15:19 53.26447 -6.02866 10375 ft 288 kts 198°
2026-05-07 15:20 53.24463 -6.03884 10616 ft 308 kts 198°
2026-05-07 15:20 53.22353 -6.04970 10879 ft 325 kts 198°
2026-05-07 15:20 53.20141 -6.06054 11283 ft 336 kts 194°
2026-05-07 15:20 53.17810 -6.06704 11860 ft 343 kts 188°
2026-05-07 15:21 53.15451 -6.07130 12482 ft 346 kts 187°
2026-05-07 15:21 53.13049 -6.07526 13144 ft 348 kts 187°
2026-05-07 15:21 53.10659 -6.08255 13780 ft 350 kts 197°
2026-05-07 15:21 53.08322 -6.09510 14278 ft 355 kts 200°
2026-05-07 15:22 53.05976 -6.10903 14756 ft 360 kts 201°
2026-05-07 15:22 53.03615 -6.12320 15385 ft 361 kts 201°
2026-05-07 15:22 53.01247 -6.13736 15998 ft 362 kts 201°
2026-05-07 15:22 52.98851 -6.15161 16498 ft 366 kts 201°
2026-05-07 15:23 52.96502 -6.16824 16995 ft 369 kts 210°
2026-05-07 15:23 52.94454 -6.19393 17526 ft 371 kts 226°
2026-05-07 15:23 52.92908 -6.22754 18055 ft 374 kts 236°
2026-05-07 15:23 52.91529 -6.26426 18477 ft 377 kts 238°
2026-05-07 15:24 52.90167 -6.30165 18902 ft 380 kts 238°
2026-05-07 15:24 52.88795 -6.33912 19339 ft 381 kts 238°
2026-05-07 15:24 52.87406 -6.37678 19756 ft 383 kts 238°
2026-05-07 15:24 52.86003 -6.41459 19933 ft 390 kts 238°
2026-05-07 15:25 52.84558 -6.45336 19948 ft 400 kts 238°
2026-05-07 15:25 52.83089 -6.49265 19941 ft 402 kts 237°
2026-05-07 15:25 52.81614 -6.53204 19945 ft 404 kts 237°
2026-05-07 15:25 52.80131 -6.57156 19950 ft 404 kts 238°
2026-05-07 15:26 52.78777 -6.61211 19948 ft 404 kts 245°
2026-05-07 15:26 52.77986 -6.65660 19943 ft 406 kts 260°
2026-05-07 15:26 52.77961 -6.70270 19943 ft 409 kts 276°
2026-05-07 15:26 52.78736 -6.74803 19945 ft 414 kts 291°
2026-05-07 15:27 52.80276 -6.78843 19941 ft 419 kts 308°
2026-05-07 15:27 52.82476 -6.82027 19948 ft 425 kts 324°
2026-05-07 15:27 52.85169 -6.84101 19943 ft 430 kts 338°
2026-05-07 15:27 52.88048 -6.85553 19935 ft 432 kts 341°
2026-05-07 15:28 52.90942 -6.86895 19935 ft 432 kts 342°
2026-05-07 15:28 52.93842 -6.88244 19936 ft 432 kts 341°
2026-05-07 15:28 52.96743 -6.89611 19930 ft 432 kts 341°
2026-05-07 15:28 52.99636 -6.90987 19930 ft 432 kts 341°
2026-05-07 15:29 53.02528 -6.92372 19928 ft 432 kts 341°
2026-05-07 15:29 53.05413 -6.93760 19931 ft 432 kts 341°
2026-05-07 15:29 53.08271 -6.95138 19923 ft 433 kts 341°
2026-05-07 15:29 53.11164 -6.96537 19922 ft 433 kts 341°
2026-05-07 15:30 53.14056 -6.97938 19925 ft 433 kts 341°
2026-05-07 15:30 53.16956 -6.99345 19922 ft 433 kts 341°
2026-05-07 15:30 53.19846 -7.00749 19922 ft 433 kts 341°
2026-05-07 15:30 53.22742 -7.02158 19922 ft 433 kts 341°
2026-05-07 15:31 53.25642 -7.03572 19915 ft 433 kts 341°
2026-05-07 15:31 53.28533 -7.04983 19914 ft 433 kts 341°
2026-05-07 15:31 53.31430 -7.06400 19914 ft 433 kts 341°
2026-05-07 15:31 53.34320 -7.07814 19914 ft 433 kts 341°
2026-05-07 15:32 53.37213 -7.09232 19911 ft 433 kts 341°
2026-05-07 15:32 53.40107 -7.10652 19911 ft 433 kts 341°
2026-05-07 15:32 53.43004 -7.12076 19911 ft 433 kts 341°
2026-05-07 15:32 53.45896 -7.13500 19911 ft 433 kts 341°
2026-05-07 15:33 53.48790 -7.14926 19913 ft 433 kts 341°
2026-05-07 15:33 53.51679 -7.16352 19915 ft 433 kts 341°
2026-05-07 15:33 53.54571 -7.17781 19914 ft 427 kts 341°
2026-05-07 15:33 53.57353 -7.19152 19924 ft 405 kts 341°
2026-05-07 15:34 53.59985 -7.20452 19921 ft 385 kts 340°
2026-05-07 15:34 53.62520 -7.21709 19916 ft 376 kts 340°
2026-05-07 15:34 53.65007 -7.22927 19910 ft 377 kts 342°
2026-05-07 15:34 53.67617 -7.23574 19910 ft 382 kts 357°
2026-05-07 15:35 53.70257 -7.22902 19905 ft 386 kts 17°
2026-05-07 15:35 53.72645 -7.20812 19907 ft 388 kts 37°
2026-05-07 15:35 53.74503 -7.17520 19909 ft 388 kts 57°
2026-05-07 15:35 53.75627 -7.13425 19911 ft 385 kts 77°
2026-05-07 15:36 53.75923 -7.09025 19917 ft 380 kts 95°
2026-05-07 15:36 53.75604 -7.04579 19914 ft 387 kts 102°
2026-05-07 15:36 53.75113 -6.99950 19900 ft 412 kts 103°
2026-05-07 15:36 53.74577 -6.95055 19900 ft 433 kts 103°
2026-05-07 15:37 53.74019 -6.89996 19906 ft 441 kts 103°
2026-05-07 15:37 53.73452 -6.84877 19912 ft 442 kts 103°
2026-05-07 15:37 53.72886 -6.79771 19917 ft 442 kts 103°
2026-05-07 15:37 53.72316 -6.74665 19916 ft 441 kts 103°
2026-05-07 15:38 53.71751 -6.69641 19924 ft 441 kts 103°
2026-05-07 15:38 53.71178 -6.64559 19928 ft 440 kts 103°
2026-05-07 15:38 53.70790 -6.61126 19928 ft 440 kts 103°
2026-05-07 15:38 53.70221 -6.56101 19927 ft 440 kts 103°
2026-05-07 15:39 53.69646 -6.51024 19927 ft 440 kts 103°
2026-05-07 15:39 53.69069 -6.45948 19928 ft 440 kts 103°
2026-05-07 15:39 53.68492 -6.40878 19933 ft 440 kts 103°
2026-05-07 15:39 53.67915 -6.35814 19935 ft 440 kts 103°
2026-05-07 15:40 53.67333 -6.30724 19930 ft 440 kts 103°
2026-05-07 15:40 53.66753 -6.25650 19930 ft 440 kts 103°
2026-05-07 15:40 53.66170 -6.20576 19939 ft 440 kts 103°
2026-05-07 15:40 53.65592 -6.15563 19942 ft 440 kts 103°
2026-05-07 15:41 53.65006 -6.10491 19941 ft 440 kts 103°
2026-05-07 15:41 53.64419 -6.05420 19942 ft 440 kts 103°
2026-05-07 15:41 53.63836 -6.00389 19954 ft 428 kts 103°
2026-05-07 15:41 53.63286 -5.95603 19967 ft 405 kts 103°
2026-05-07 15:42 53.62769 -5.91054 19966 ft 385 kts 103°
2026-05-07 15:42 53.62282 -5.86725 19961 ft 367 kts 103°
2026-05-07 15:42 53.61823 -5.82593 19959 ft 351 kts 103°
2026-05-07 15:42 53.61387 -5.78648 19825 ft 344 kts 103°
2026-05-07 15:43 53.60951 -5.74690 19425 ft 342 kts 103°
2026-05-07 15:43 53.60515 -5.70750 19014 ft 341 kts 103°
2026-05-07 15:43 53.60080 -5.66846 18613 ft 339 kts 103°
2026-05-07 15:43 53.59648 -5.62959 18216 ft 337 kts 103°
2026-05-07 15:44 53.59216 -5.59100 17787 ft 334 kts 104°
2026-05-07 15:44 53.58789 -5.55276 17359 ft 332 kts 104°
2026-05-07 15:44 53.58368 -5.51464 16919 ft 330 kts 103°
2026-05-07 15:44 53.57949 -5.47685 16494 ft 327 kts 104°
2026-05-07 15:45 53.57532 -5.43941 16093 ft 324 kts 103°
2026-05-07 15:45 53.57121 -5.40226 15666 ft 322 kts 103°
2026-05-07 15:45 53.57046 -5.36456 15222 ft 326 kts 83°
2026-05-07 15:45 53.57823 -5.32928 14826 ft 328 kts 59°
2026-05-07 15:46 53.61421 -5.28538 13971 ft 325 kts 11°
2026-05-07 15:46 53.63644 -5.28428 13560 ft 318 kts 347°
2026-05-07 15:46 53.65665 -5.29766 13081 ft 310 kts 322°
2026-05-07 15:47 53.67140 -5.32284 12631 ft 299 kts 298°
2026-05-07 15:47 53.67984 -5.35431 12212 ft 291 kts 285°
2026-05-07 15:47 53.68609 -5.38621 11793 ft 289 kts 284°
2026-05-07 15:47 53.69216 -5.41847 11327 ft 287 kts 284°
2026-05-07 15:48 53.69819 -5.45067 10587 ft 287 kts 284°
2026-05-07 15:48 53.70416 -5.48254 9823 ft 283 kts 284°
2026-05-07 15:48 53.71007 -5.51388 8992 ft 279 kts 284°
2026-05-07 15:48 53.71594 -5.54495 8195 ft 276 kts 284°
2026-05-07 15:49 53.72160 -5.57575 7384 ft 273 kts 283°
2026-05-07 15:49 53.72723 -5.60619 6607 ft 270 kts 284°
2026-05-07 15:49 53.73280 -5.63632 5813 ft 268 kts 283°
2026-05-07 15:49 53.73832 -5.66564 5090 ft 264 kts 283°
2026-05-07 15:50 53.74397 -5.69490 4453 ft 258 kts 284°
2026-05-07 15:50 53.74921 -5.72273 4142 ft 240 kts 283°
2026-05-07 15:50 53.75422 -5.74856 3984 ft 221 kts 283°
2026-05-07 15:50 53.75909 -5.77227 3977 ft 210 kts 283°
2026-05-07 15:51 53.76385 -5.79553 3966 ft 209 kts 284°
2026-05-07 15:51 53.76885 -5.82091 4236 ft 256 kts 283°
2026-05-07 15:51 53.77462 -5.85193 5037 ft 293 kts 284°
2026-05-07 15:51 53.78058 -5.88581 6457 ft 302 kts 283°
2026-05-07 15:52 53.78645 -5.91927 8377 ft 291 kts 283°
2026-05-07 15:52 53.79212 -5.95144 10321 ft 279 kts 283°
2026-05-07 15:52 53.79767 -5.98219 11988 ft 268 kts 283°
2026-05-07 15:52 53.80314 -6.01132 13627 ft 258 kts 283°
2026-05-07 15:53 53.80847 -6.03958 14997 ft 247 kts 283°
2026-05-07 15:53 53.81371 -6.06679 16194 ft 242 kts 283°
2026-05-07 15:53 53.81897 -6.09403 17183 ft 245 kts 284°
2026-05-07 15:53 53.82422 -6.12175 18095 ft 249 kts 283°
2026-05-07 15:54 53.82956 -6.14998 18908 ft 253 kts 283°
2026-05-07 15:54 53.83492 -6.17859 19696 ft 256 kts 283°
2026-05-07 15:54 53.84033 -6.20743 20527 ft 258 kts 283°
2026-05-07 15:54 53.84584 -6.23651 21307 ft 260 kts 283°
2026-05-07 15:55 53.85135 -6.26552 22072 ft 263 kts 283°
2026-05-07 15:55 53.85703 -6.29529 22816 ft 267 kts 283°
2026-05-07 15:55 53.86283 -6.32536 23557 ft 270 kts 283°
2026-05-07 15:55 53.86872 -6.35573 24147 ft 273 kts 283°
2026-05-07 15:56 53.87472 -6.38659 24713 ft 278 kts 283°
2026-05-07 15:56 53.88084 -6.41796 25278 ft 282 kts 283°
2026-05-07 15:56 53.88704 -6.44973 25847 ft 286 kts 283°
2026-05-07 15:56 53.89333 -6.48192 26409 ft 289 kts 283°
2026-05-07 15:57 53.89802 -6.51495 26930 ft 287 kts 268°
2026-05-07 15:57 53.89625 -6.54788 27463 ft 284 kts 255°
2026-05-07 15:57 53.89212 -6.58122 28019 ft 286 kts 253°
2026-05-07 15:57 53.88778 -6.61434 28553 ft 290 kts 253°
2026-05-07 15:58 53.88339 -6.64785 29087 ft 293 kts 253°
2026-05-07 15:58 53.87904 -6.68129 29611 ft 296 kts 253°
2026-05-07 15:58 53.87462 -6.71550 30088 ft 299 kts 253°
2026-05-07 15:58 53.87017 -6.75011 30532 ft 301 kts 253°
2026-05-07 15:59 53.86574 -6.78468 31061 ft 300 kts 253°
2026-05-07 15:59 53.86133 -6.81921 31612 ft 299 kts 253°
2026-05-07 15:59 53.85690 -6.85339 32180 ft 296 kts 253°
2026-05-07 15:59 53.85250 -6.88735 32678 ft 294 kts 253°
2026-05-07 16:00 53.84813 -6.92121 33139 ft 294 kts 253°
2026-05-07 16:00 53.84374 -6.95532 33424 ft 300 kts 253°
2026-05-07 16:00 53.83927 -6.98987 33632 ft 307 kts 253°
2026-05-07 16:00 53.83461 -7.02568 33795 ft 316 kts 253°
2026-05-07 16:01 53.82975 -7.06262 33940 ft 326 kts 253°
2026-05-07 16:01 53.82470 -7.10046 34100 ft 333 kts 253°
2026-05-07 16:01 53.81950 -7.13908 34363 ft 337 kts 253°
2026-05-07 16:01 53.81420 -7.17794 34676 ft 340 kts 253°
2026-05-07 16:02 53.80880 -7.21714 34998 ft 342 kts 253°
2026-05-07 16:02 53.80332 -7.25648 35314 ft 344 kts 253°
2026-05-07 16:02 53.79784 -7.29548 35604 ft 346 kts 253°
2026-05-07 16:02 53.79220 -7.33517 35903 ft 348 kts 253°
2026-05-07 16:03 53.78641 -7.37498 36259 ft 349 kts 253°
2026-05-07 16:03 53.78053 -7.41498 36555 ft 351 kts 253°
2026-05-07 16:03 53.77458 -7.45511 36823 ft 353 kts 253°
2026-05-07 16:03 53.76854 -7.49552 37094 ft 356 kts 253°
2026-05-07 16:04 53.76242 -7.53616 37364 ft 358 kts 253°
2026-05-07 16:04 53.75620 -7.57712 37625 ft 360 kts 253°
2026-05-07 16:04 53.74987 -7.61835 37832 ft 364 kts 253°
2026-05-07 16:04 53.74343 -7.65987 38071 ft 366 kts 253°
2026-05-07 16:05 53.73693 -7.70151 38349 ft 368 kts 253°
2026-05-07 16:05 53.73037 -7.74340 38584 ft 370 kts 253°
2026-05-07 16:05 53.72372 -7.78552 38772 ft 372 kts 253°
2026-05-07 16:05 53.71701 -7.82787 38954 ft 374 kts 253°
2026-05-07 16:06 53.71026 -7.86979 39184 ft 374 kts 253°
2026-05-07 16:06 53.70333 -7.91230 39386 ft 376 kts 253°
2026-05-07 16:06 53.69632 -7.95496 39554 ft 378 kts 253°
2026-05-07 16:06 53.68926 -7.99780 39713 ft 380 kts 253°
2026-05-07 16:07 53.68210 -8.04096 39881 ft 382 kts 253°
2026-05-07 16:07 53.67490 -8.08425 40057 ft 384 kts 253°
2026-05-07 16:07 53.66763 -8.12776 40222 ft 386 kts 253°
2026-05-07 16:07 53.66030 -8.17141 40381 ft 388 kts 252°
2026-05-07 16:08 53.65290 -8.21528 40565 ft 390 kts 252°
2026-05-07 16:08 53.64547 -8.25922 40720 ft 391 kts 252°
2026-05-07 16:08 53.63805 -8.30292 40882 ft 393 kts 252°
2026-05-07 16:08 53.63048 -8.34722 41053 ft 395 kts 253°
2026-05-07 16:09 53.62278 -8.39167 41252 ft 396 kts 252°
2026-05-07 16:09 53.61502 -8.43624 41402 ft 397 kts 252°
2026-05-07 16:09 53.60719 -8.48098 41555 ft 399 kts 252°
2026-05-07 16:09 53.59932 -8.52589 41709 ft 401 kts 252°
2026-05-07 16:10 53.59134 -8.57124 41858 ft 403 kts 252°
2026-05-07 16:10 53.58334 -8.61658 42008 ft 405 kts 252°
2026-05-07 16:10 53.57529 -8.66207 42153 ft 406 kts 252°
2026-05-07 16:10 53.56719 -8.70773 42300 ft 408 kts 252°
2026-05-07 16:11 53.55902 -8.75360 42450 ft 410 kts 252°
2026-05-07 16:11 53.55091 -8.79903 42591 ft 411 kts 252°
2026-05-07 16:11 53.54253 -8.84579 42741 ft 413 kts 252°
2026-05-07 16:11 53.53416 -8.89203 42882 ft 414 kts 252°
2026-05-07 16:12 53.52584 -8.93781 43019 ft 416 kts 252°
2026-05-07 16:12 53.51724 -8.98500 43155 ft 418 kts 252°
2026-05-07 16:12 53.50869 -9.03176 43287 ft 419 kts 252°
2026-05-07 16:12 53.50010 -9.07866 43427 ft 421 kts 252°
2026-05-07 16:13 53.49148 -9.12564 43571 ft 422 kts 252°
2026-05-07 16:13 53.48290 -9.17226 43688 ft 424 kts 252°
2026-05-07 16:13 53.47416 -9.21962 43841 ft 425 kts 252°
2026-05-07 16:13 53.46538 -9.26707 43965 ft 426 kts 252°
2026-05-07 16:14 53.45656 -9.31468 44080 ft 428 kts 252°
2026-05-07 16:14 53.44609 -9.36148 44207 ft 429 kts 241°
2026-05-07 16:14 53.42843 -9.40167 44299 ft 431 kts 224°
2026-05-07 16:14 53.40424 -9.43139 44381 ft 435 kts 207°
2026-05-07 16:15 53.37547 -9.44797 44471 ft 440 kts 191°
2026-05-07 16:15 53.34488 -9.45268 44577 ft 443 kts 184°
2026-05-07 16:15 53.31394 -9.45362 44701 ft 445 kts 182°
2026-05-07 16:15 53.28289 -9.45396 44825 ft 446 kts 182°
2026-05-07 16:16 53.25182 -9.45421 44938 ft 447 kts 182°
2026-05-07 16:16 53.22065 -9.45445 45050 ft 449 kts 182°
2026-05-07 16:16 53.18937 -9.45471 45162 ft 450 kts 182°
2026-05-07 16:16 53.15806 -9.45498 45276 ft 451 kts 182°
2026-05-07 16:17 53.12702 -9.45525 45396 ft 452 kts 182°
2026-05-07 16:17 53.06394 -9.45583 45598 ft 454 kts 182°
2026-05-07 16:17 53.03226 -9.45614 45702 ft 455 kts 182°
2026-05-07 16:18 53.00058 -9.45646 45804 ft 456 kts 182°
2026-05-07 16:18 52.93693 -9.45712 45998 ft 458 kts 182°
2026-05-07 16:18 52.90505 -9.45746 46101 ft 459 kts 182°
2026-05-07 16:19 52.87309 -9.45782 46191 ft 460 kts 182°
2026-05-07 16:19 52.84103 -9.45821 46299 ft 460 kts 182°
2026-05-07 16:19 52.80901 -9.45864 46398 ft 461 kts 182°
2026-05-07 16:20 52.74474 -9.45950 46575 ft 463 kts 182°
2026-05-07 16:20 52.68060 -9.46041 46740 ft 464 kts 182°
2026-05-07 16:21 52.61587 -9.46135 46904 ft 466 kts 182°
2026-05-07 16:21 52.55085 -9.46241 47071 ft 467 kts 182°
2026-05-07 16:22 52.48570 -9.46349 47206 ft 469 kts 182°
2026-05-07 16:22 52.42036 -9.46458 47358 ft 470 kts 182°
2026-05-07 16:23 52.35475 -9.46569 47446 ft 472 kts 182°
2026-05-07 16:23 52.28938 -9.46667 47608 ft 473 kts 182°
2026-05-07 16:24 52.22332 -9.46776 47731 ft 474 kts 182°
2026-05-07 16:24 52.15723 -9.46882 47839 ft 476 kts 182°
2026-05-07 16:25 52.09101 -9.46982 48000 ft 476 kts 182°
2026-05-07 16:25 52.03580 -9.47070 48079 ft 478 kts 182°
2026-05-07 16:26 51.95845 -9.47189 48237 ft 479 kts 182°
2026-05-07 16:26 51.90240 -9.47286 48302 ft 480 kts 182°
2026-05-07 16:27 51.83601 -9.47408 48415 ft 481 kts 182°
2026-05-07 16:27 51.80256 -9.47478 48550 ft 479 kts 182°
2026-05-07 16:27 51.76917 -9.47542 48727 ft 477 kts 182°
2026-05-07 16:27 51.73603 -9.47606 48852 ft 476 kts 182°
2026-05-07 16:28 51.70290 -9.47674 48934 ft 476 kts 182°
2026-05-07 16:28 51.63667 -9.47809 48967 ft 477 kts 182°
2026-05-07 16:29 51.57007 -9.47960 48976 ft 479 kts 182°
2026-05-07 16:29 51.50368 -9.48114 48970 ft 479 kts 182°
2026-05-07 16:30 51.45531 -9.48226 48984 ft 477 kts 182°
2026-05-07 16:30 51.43518 -9.48273 48977 ft 476 kts 182°
2026-05-07 16:31 51.36978 -9.47385 48976 ft 478 kts 162°
2026-05-07 16:31 51.33975 -9.45071 48977 ft 480 kts 146°
2026-05-07 16:31 51.31476 -9.41546 48989 ft 483 kts 130°
2026-05-07 16:31 51.29644 -9.37040 48983 ft 486 kts 115°
2026-05-07 16:32 51.28626 -9.31884 48983 ft 488 kts 99°
2026-05-07 16:32 51.28503 -9.26462 48983 ft 490 kts 83°
2026-05-07 16:32 51.29248 -9.21143 48990 ft 491 kts 71°
2026-05-07 16:33 51.31706 -9.10983 48984 ft 494 kts 68°
2026-05-07 16:33 51.34333 -9.00791 48980 ft 497 kts 68°
2026-05-07 16:34 51.36976 -8.90548 48984 ft 499 kts 68°
2026-05-07 16:34 51.39624 -8.80256 48978 ft 500 kts 68°
2026-05-07 16:35 51.42266 -8.69963 48984 ft 500 kts 68°
2026-05-07 16:35 51.44907 -8.59655 48969 ft 499 kts 68°
2026-05-07 16:36 51.47543 -8.49359 48975 ft 499 kts 68°
2026-05-07 16:36 51.50160 -8.39115 48972 ft 499 kts 68°
2026-05-07 16:37 51.52795 -8.28780 48981 ft 499 kts 68°
2026-05-07 16:37 51.55421 -8.18468 48973 ft 499 kts 68°
2026-05-07 16:38 51.58054 -8.08146 48983 ft 499 kts 68°
2026-05-07 16:38 51.60690 -7.97797 48980 ft 499 kts 68°
2026-05-07 16:39 51.63316 -7.87462 48991 ft 499 kts 68°
2026-05-07 16:39 51.65922 -7.77184 48982 ft 499 kts 68°
2026-05-07 16:40 51.68542 -7.66827 48983 ft 498 kts 68°
2026-05-07 16:40 51.71152 -7.56484 48999 ft 498 kts 68°
2026-05-07 16:41 51.73759 -7.46133 48985 ft 498 kts 68°
2026-05-07 16:41 51.76365 -7.35760 48986 ft 498 kts 68°
2026-05-07 16:42 51.78964 -7.25388 48985 ft 498 kts 68°
2026-05-07 16:42 51.81535 -7.15095 48992 ft 497 kts 68°
2026-05-07 16:43 51.84128 -7.04692 48993 ft 497 kts 68°
2026-05-07 16:43 51.86710 -6.94325 48998 ft 497 kts 68°
2026-05-07 16:44 51.89292 -6.83937 48997 ft 497 kts 68°
2026-05-07 16:44 51.91849 -6.73614 48989 ft 496 kts 68°
2026-05-07 16:45 51.94414 -6.63230 48993 ft 496 kts 68°
2026-05-07 16:45 51.97625 -6.53342 48990 ft 495 kts 53°
2026-05-07 16:46 52.02442 -6.45553 48990 ft 493 kts 33°
2026-05-07 16:46 52.05406 -6.42784 48991 ft 491 kts 22°
2026-05-07 16:46 52.08615 -6.40949 48989 ft 489 kts 12°
2026-05-07 16:47 52.15314 -6.38904 48980 ft 490 kts
2026-05-07 16:47 52.22052 -6.37061 48974 ft 491 kts
2026-05-07 16:48 52.28799 -6.35183 48980 ft 491 kts
2026-05-07 16:48 52.35498 -6.33299 48984 ft 491 kts
2026-05-07 16:49 52.42244 -6.31393 48971 ft 491 kts
2026-05-07 16:49 52.48976 -6.29483 48978 ft 491 kts
2026-05-07 16:50 52.55719 -6.27565 48969 ft 491 kts
2026-05-07 16:50 52.62414 -6.25653 48971 ft 491 kts
2026-05-07 16:51 52.69169 -6.23718 48958 ft 492 kts
2026-05-07 16:51 52.75921 -6.21779 48963 ft 492 kts
2026-05-07 16:52 52.82675 -6.19833 48960 ft 492 kts
2026-05-07 16:52 52.89391 -6.17892 48959 ft 493 kts
2026-05-07 16:53 52.96152 -6.15931 48952 ft 493 kts
2026-05-07 16:53 53.02915 -6.13963 48946 ft 493 kts
2026-05-07 16:54 53.09678 -6.11926 48956 ft 493 kts
2026-05-07 16:54 53.16437 -6.09843 48942 ft 493 kts
2026-05-07 16:54 53.19809 -6.08802 48807 ft 492 kts
2026-05-07 16:55 53.23208 -6.08256 48148 ft 490 kts 355°
2026-05-07 16:55 53.26555 -6.09189 47524 ft 486 kts 339°
2026-05-07 16:55 53.29649 -6.11404 46942 ft 482 kts 330°
2026-05-07 16:55 53.32609 -6.14043 46370 ft 482 kts 329°
2026-05-07 16:56 53.35535 -6.16769 45816 ft 481 kts 328°
2026-05-07 16:56 53.38419 -6.19483 45226 ft 481 kts 328°
2026-05-07 16:56 53.44272 -6.25015 43977 ft 481 kts 328°
2026-05-07 16:57 53.47192 -6.27779 43285 ft 482 kts 328°
2026-05-07 16:57 53.50117 -6.30555 42634 ft 484 kts 328°
2026-05-07 16:57 53.53053 -6.33334 41977 ft 485 kts 328°
2026-05-07 16:57 53.56001 -6.36119 41341 ft 486 kts 328°
2026-05-07 16:58 53.58788 -6.39172 40720 ft 483 kts 317°
2026-05-07 16:58 53.61041 -6.43302 40040 ft 476 kts 301°
2026-05-07 16:58 53.62617 -6.48143 39084 ft 468 kts 291°
2026-05-07 16:58 53.63878 -6.53215 37676 ft 468 kts 289°
2026-05-07 16:59 53.65091 -6.58363 36267 ft 476 kts 288°
2026-05-07 16:59 53.66314 -6.63586 35345 ft 480 kts 288°
2026-05-07 16:59 53.67544 -6.68831 34589 ft 480 kts 288°
2026-05-07 16:59 53.68761 -6.74010 33814 ft 479 kts 288°
2026-05-07 17:00 53.70005 -6.79227 32919 ft 480 kts 290°
2026-05-07 17:00 53.71515 -6.84259 32115 ft 480 kts 297°
2026-05-07 17:00 53.73417 -6.88895 31352 ft 480 kts 306°
2026-05-07 17:00 53.75724 -6.92950 30711 ft 478 kts 316°
2026-05-07 17:01 53.78389 -6.96285 30082 ft 477 kts 326°
2026-05-07 17:01 53.81349 -6.98794 29317 ft 476 kts 336°
2026-05-07 17:01 53.84523 -7.00378 28702 ft 476 kts 346°
2026-05-07 17:01 53.87809 -7.01018 28120 ft 476 kts 356°
2026-05-07 17:02 53.91107 -7.00702 27572 ft 474 kts
2026-05-07 17:02 53.94311 -6.99446 27015 ft 472 kts 17°
2026-05-07 17:02 53.97295 -6.97332 26479 ft 468 kts 27°
2026-05-07 17:02 54.00031 -6.94414 25834 ft 463 kts 37°
2026-05-07 17:03 54.02426 -6.90786 25151 ft 459 kts 47°
2026-05-07 17:03 54.04418 -6.86574 24477 ft 454 kts 57°
2026-05-07 17:03 54.05958 -6.81929 23849 ft 448 kts 66°
2026-05-07 17:03 54.07030 -6.76993 23112 ft 443 kts 76°
2026-05-07 17:04 54.07622 -6.71872 22387 ft 437 kts 86°
2026-05-07 17:04 54.07737 -6.66753 21686 ft 429 kts 95°
2026-05-07 17:04 54.07308 -6.61786 20998 ft 419 kts 109°
2026-05-07 17:04 54.06107 -6.57356 20320 ft 407 kts 127°
2026-05-07 17:05 54.04257 -6.53803 19683 ft 396 kts 141°
2026-05-07 17:05 54.02171 -6.50759 19012 ft 391 kts 143°
2026-05-07 17:05 54.00106 -6.47873 18355 ft 388 kts 143°
2026-05-07 17:05 53.98031 -6.44982 17624 ft 384 kts 144°
2026-05-07 17:06 53.95974 -6.42104 16872 ft 380 kts 143°
2026-05-07 17:06 53.93953 -6.39237 16115 ft 377 kts 143°
2026-05-07 17:06 53.91946 -6.36396 15449 ft 373 kts 143°
2026-05-07 17:06 53.89968 -6.33580 15042 ft 371 kts 143°
2026-05-07 17:07 53.87998 -6.30751 14932 ft 370 kts 143°
2026-05-07 17:07 53.86038 -6.27920 14928 ft 370 kts 142°
2026-05-07 17:07 53.84110 -6.25130 14933 ft 369 kts 142°
2026-05-07 17:07 53.82164 -6.22311 14930 ft 368 kts 142°
2026-05-07 17:08 53.80215 -6.19484 14931 ft 368 kts 142°
2026-05-07 17:08 53.78269 -6.16659 14938 ft 368 kts 142°
2026-05-07 17:08 53.76316 -6.13846 14936 ft 369 kts 142°
2026-05-07 17:08 53.74358 -6.11041 14934 ft 369 kts 142°
2026-05-07 17:09 53.72404 -6.08243 14931 ft 369 kts 142°
2026-05-07 17:09 53.70447 -6.05444 14853 ft 367 kts 142°
2026-05-07 17:09 53.68508 -6.02660 14265 ft 364 kts 142°
2026-05-07 17:09 53.66589 -5.99900 13555 ft 361 kts 142°
2026-05-07 17:10 53.64683 -5.97170 12833 ft 357 kts 142°
2026-05-07 17:10 53.62829 -5.94516 12520 ft 342 kts 143°
2026-05-07 17:10 53.61072 -5.91962 12286 ft 326 kts 143°
2026-05-07 17:10 53.59356 -5.89620 12103 ft 309 kts 149°
2026-05-07 17:11 53.57498 -5.88004 11892 ft 292 kts 164°
2026-05-07 17:11 53.55567 -5.87200 11586 ft 282 kts 173°
2026-05-07 17:11 53.53662 -5.86704 11123 ft 279 kts 175°
2026-05-07 17:11 53.51754 -5.86284 10461 ft 274 kts 175°
2026-05-07 17:12 53.49858 -5.85888 9619 ft 274 kts 176°
2026-05-07 17:12 53.47985 -5.85501 8834 ft 268 kts 175°
2026-05-07 17:12 53.46141 -5.85139 7968 ft 266 kts 176°
2026-05-07 17:12 53.44319 -5.84794 7303 ft 259 kts 176°
2026-05-07 17:13 53.42589 -5.84446 6999 ft 240 kts 175°
2026-05-07 17:13 53.41521 -5.84218 6952 ft 229 kts 175°
2026-05-07 17:13 53.39945 -5.83895 6947 ft 228 kts 177°
2026-05-07 17:13 53.38390 -5.84148 6946 ft 225 kts 201°
2026-05-07 17:14 53.37115 -5.85596 6945 ft 223 kts 227°
2026-05-07 17:14 53.36318 -5.87831 6945 ft 228 kts 251°
2026-05-07 17:14 53.36278 -5.90489 6940 ft 234 kts 281°
2026-05-07 17:14 53.36929 -5.93015 6944 ft 239 kts 295°
2026-05-07 17:15 53.37765 -5.95433 6935 ft 240 kts 296°
2026-05-07 17:15 53.38624 -5.97838 6979 ft 241 kts 297°
2026-05-07 17:15 53.39471 -6.00223 6947 ft 239 kts 297°
2026-05-07 17:15 53.40312 -6.02621 6602 ft 240 kts 296°
2026-05-07 17:16 53.41161 -6.05066 6185 ft 244 kts 296°
2026-05-07 17:16 53.42005 -6.07506 6002 ft 239 kts 296°
2026-05-07 17:16 53.42834 -6.09912 5991 ft 238 kts 296°
2026-05-07 17:16 53.43659 -6.12317 5994 ft 238 kts 295°
2026-05-07 17:17 53.44464 -6.14651 5994 ft 224 kts 296°
2026-05-07 17:17 53.45443 -6.16596 6004 ft 222 kts 317°
2026-05-07 17:17 53.46867 -6.17617 5997 ft 228 kts 350°
2026-05-07 17:17 53.48442 -6.17197 5992 ft 234 kts 25°
2026-05-07 17:18 53.49634 -6.15399 5992 ft 231 kts 60°
2026-05-07 17:18 53.50096 -6.12872 5996 ft 226 kts 88°
2026-05-07 17:18 53.50149 -6.10242 5993 ft 224 kts 95°
2026-05-07 17:18 53.50132 -6.07612 5994 ft 225 kts 94°
2026-05-07 17:19 53.50117 -6.04989 5992 ft 224 kts 94°
2026-05-07 17:19 53.50111 -6.02366 5990 ft 225 kts 94°
2026-05-07 17:19 53.50112 -5.99771 5999 ft 225 kts 94°
2026-05-07 17:19 53.50063 -5.97116 5997 ft 223 kts 102°
2026-05-07 17:20 53.49527 -5.94783 5994 ft 215 kts 131°
2026-05-07 17:20 53.48388 -5.93284 5827 ft 207 kts 161°
2026-05-07 17:20 53.46997 -5.92985 5518 ft 199 kts 186°
2026-05-07 17:20 53.45621 -5.93247 5162 ft 198 kts 190°
2026-05-07 17:21 53.44271 -5.93587 4778 ft 194 kts 191°
2026-05-07 17:21 53.42942 -5.93945 4196 ft 194 kts 193°
2026-05-07 17:21 53.41702 -5.94791 3679 ft 191 kts 217°
2026-05-07 17:21 53.41012 -5.96681 3448 ft 195 kts 249°
2026-05-07 17:22 53.40750 -5.98887 3257 ft 196 kts 259°
2026-05-07 17:22 53.40752 -6.01186 3046 ft 198 kts 269°
2026-05-07 17:22 53.40869 -6.03485 2799 ft 198 kts 270°
2026-05-07 17:22 53.40985 -6.05764 2528 ft 195 kts 270°
2026-05-07 17:23 53.41105 -6.08006 2254 ft 192 kts 269°
2026-05-07 17:23 53.41223 -6.10215 1993 ft 189 kts 270°
2026-05-07 17:23 53.41341 -6.12394 1750 ft 186 kts 269°
2026-05-07 17:23 53.41457 -6.14522 1486 ft 179 kts 269°
2026-05-07 17:24 53.41566 -6.16521 1254 ft 164 kts 269°
2026-05-07 17:24 53.41663 -6.18331 1031 ft 149 kts 269°
2026-05-07 17:24 53.41752 -6.19987 838 ft 138 kts 273°
2026-05-07 17:24 53.41835 -6.21517 664 ft 126 kts 273°
2026-05-07 17:25 53.41915 -6.22972 504 ft 126 kts 271°
2026-05-07 17:25 53.42018 -6.24447 488 ft 140 kts 277°
2026-05-07 17:25 53.42094 -6.26116 1668 ft 149 kts 268°
2026-05-07 17:25 53.42179 -6.28093 2677 ft 189 kts 270°
2026-05-07 17:26 53.42298 -6.30416 3442 ft 213 kts 272°
2026-05-07 17:26 53.42444 -6.33108 3855 ft 252 kts 272°
2026-05-07 17:26 53.42610 -6.36030 3979 ft 241 kts 272°
2026-05-07 17:26 53.42766 -6.38713 4002 ft 223 kts 272°
2026-05-07 17:27 53.42917 -6.41235 3998 ft 214 kts 275°
2026-05-07 17:27 53.43490 -6.43529 3997 ft 228 kts 305°
2026-05-07 17:27 53.44823 -6.45141 3972 ft 247 kts 337°
2026-05-07 17:27 53.46546 -6.45460 3975 ft 254 kts
2026-05-07 17:28 53.48177 -6.44326 3979 ft 257 kts 37°
2026-05-07 17:28 53.49317 -6.42035 3984 ft 257 kts 62°
2026-05-07 17:28 53.50036 -6.39316 3984 ft 255 kts 72°
2026-05-07 17:28 53.50540 -6.36460 3987 ft 254 kts 81°
2026-05-07 17:29 53.50858 -6.33540 3984 ft 254 kts 83°
2026-05-07 17:29 53.51123 -6.30608 3981 ft 253 kts 88°
2026-05-07 17:29 53.51157 -6.27670 3984 ft 251 kts 96°
2026-05-07 17:29 53.51028 -6.24754 3982 ft 251 kts 98°
2026-05-07 17:30 53.50876 -6.21835 3982 ft 251 kts 98°
2026-05-07 17:30 53.50725 -6.18911 3991 ft 251 kts 98°
2026-05-07 17:30 53.50576 -6.15987 3992 ft 251 kts 99°
2026-05-07 17:30 53.50434 -6.13060 3993 ft 252 kts 98°
2026-05-07 17:31 53.50299 -6.10135 3657 ft 256 kts 98°
2026-05-07 17:31 53.49860 -6.07312 3349 ft 246 kts 123°
2026-05-07 17:31 53.48726 -6.05314 3058 ft 233 kts 153°
2026-05-07 17:31 53.47211 -6.04600 2730 ft 225 kts 180°
2026-05-07 17:32 53.45666 -6.04727 2522 ft 221 kts 187°
2026-05-07 17:32 53.44168 -6.04990 2483 ft 209 kts 188°
2026-05-07 17:32 53.42777 -6.05253 2487 ft 193 kts 193°
2026-05-07 17:32 53.41731 -6.06400 2436 ft 181 kts 236°
2026-05-07 17:33 53.41354 -6.08403 2202 ft 180 kts 255°
2026-05-07 17:33 53.41264 -6.10439 1969 ft 171 kts 268°
2026-05-07 17:33 53.41367 -6.12373 1742 ft 161 kts 268°
2026-05-07 17:33 53.41440 -6.14185 1527 ft 152 kts 268°
2026-05-07 17:34 53.41539 -6.15926 1321 ft 146 kts 267°
2026-05-07 17:34 53.41624 -6.17544 1126 ft 139 kts 266°
2026-05-07 17:34 53.41706 -6.19109 947 ft 130 kts 270°
2026-05-07 17:34 53.41786 -6.20590 772 ft 124 kts 270°
2026-05-07 17:35 53.41863 -6.22018 622 ft 124 kts 271°
2026-05-07 17:35 53.41943 -6.23472 429 ft 127 kts 270°
2026-05-07 17:35 53.42023 -6.24945 279 ft 126 kts 270°
2026-05-07 17:35 53.42092 -6.26324 223 ft 101 kts 277°
2026-05-07 17:36 53.42143 -6.27178 217 ft 54 kts 274°
2026-05-07 17:36 53.42181 -6.27731 220 ft 37 kts 285°
2026-05-07 17:36 53.42263 -6.28032 224 ft 21 kts 300°
2026-05-07 17:36 53.42325 -6.28121 224 ft 10 kts 353°
2026-05-07 17:37 53.42360 -6.28068 223 ft 7 kts 74°
2026-05-07 17:37 53.42357 -6.27965 220 ft 10 kts 95°
2026-05-07 17:37 53.42350 -6.27828 222 ft 13 kts 95°
2026-05-07 17:37 53.42341 -6.27661 221 ft 16 kts 95°
2026-05-07 17:38 53.42330 -6.27466 215 ft 18 kts 95°
2026-05-07 17:38 53.42318 -6.27243 221 ft 20 kts 97°
2026-05-07 17:38 53.42304 -6.26991 221 ft 23 kts 95°
2026-05-07 17:38 53.42291 -6.26743 217 ft 20 kts 95°
2026-05-07 17:39 53.42277 -6.26492 222 ft 19 kts 95°
2026-05-07 17:39 53.42267 -6.26297 217 ft 15 kts 92°
2026-05-07 17:39 53.42292 -6.26125 220 ft 16 kts 61°
2026-05-07 17:39 53.42359 -6.25995 223 ft 15 kts 46°
2026-05-07 17:40 53.42442 -6.25852 225 ft 19 kts 45°
2026-05-07 17:40 53.42519 -6.25723 225 ft 17 kts 44°
2026-05-07 17:40 53.42585 -6.25611 223 ft 12 kts 46°
2026-05-07 17:40 53.42651 -6.25497 225 ft 15 kts 45°
2026-05-07 17:41 53.42724 -6.25372 224 ft 12 kts 45°
2026-05-07 17:41 53.42779 -6.25278 223 ft 9 kts 49°
2026-05-07 17:41 53.42794 -6.25172 215 ft 10 kts 89°
2026-05-07 17:41 53.42779 -6.25062 221 ft 10 kts 122°
2026-05-07 17:42 53.42724 -6.24989 225 ft 7 kts 147°
2026-05-07 17:42 53.42716 -6.24980 225 ft 0 kts 147°
2026-05-07 17:44 53.42714 -6.24978 225 ft 2 kts 147°
2026-05-07 17:44 53.42705 -6.24961 223 ft 1 kts 121°
2026-05-07 17:44 53.42705 -6.24944 221 ft 2 kts 85°
2026-05-07 17:44 53.42709 -6.24937 225 ft 1 kts 55°
2026-05-07 17:45 53.42722 -6.24908 225 ft 5 kts 55°
2026-05-07 17:45 53.42735 -6.24875 224 ft 4 kts 55°
2026-05-07 17:45 53.42744 -6.24853 224 ft 2 kts 55°
2026-05-07 17:45 53.42748 -6.24845 223 ft 0 kts 55°